This demonstration page uses our WeatherBlox Daily Observations layout. Learn more.

Left ArrowRight Arrow

39.12711, -84.51439

Hourly Observations for December 28, 2018

Temp ( °F °C ) Dew Point ( °F °C ) Humidity (%) Winds ( mph kmh ) Pressure ( in mb ) Visibility ( mi km ) Precip ( " mm )
12:53 am 00:53 Cloudy 57 13.9 52 11.1 83 83 S 8 13 29.84 1011 10 16 0.00 0.00
1:53 am 01:53 Cloudy 57 13.9 52 11.1 83 83 S 12 19 29.84 1011 10 16 0.00 0.00
2:53 am 02:53 Cloudy 57 13.9 52 11.1 83 83 S 9 15 29.85 1011 10 16 0.00 0.03
3:53 am 03:53 Cloudy 56 13.3 51 10.6 84 84 S 9 15 29.84 1010 10 16 0.00 0.00
4:53 am 04:53 Cloudy 55 12.8 51 10.6 87 87 SSW 6 9 29.83 1010 10 16 0.00 0.00
5:28 am 05:28 Cloudy 55 12.8 52 11.1 90 90 S 6 9 29.85 1011 10 16 0.00 0.03
5:53 am 05:53 Cloudy 54 12.2 52 11.1 93 93 SSW 7 11 29.83 1010 9 14 0.00 0.03
6:32 am 06:32 Cloudy 54 12.2 53 11.7 97 97 SSW 7 11 29.85 1011 8 13 0.00 0.00
6:53 am 06:53 Cloudy with Light Rain 54 12.2 53 11.7 97 97 SSW 6 9 29.82 1010 5 8 0.01 0.25
7:53 am 07:53 Cloudy with Light Rain 53 11.7 53 11.7 100 100 SSW 5 7 29.82 1010 3 4 0.01 0.25
8:00 am 08:00 Cloudy with Light Rain 53 11.7 53 11.7 100 100 SSW 6 9 29.85 1011 3 4 0.00 0.03
8:44 am 08:44 Cloudy 53 11.7 53 11.7 100 100 W 5 7 29.85 1011 9 14 0.01 0.25
8:53 am 08:53 Cloudy 53 11.7 53 11.7 100 100 WSW 5 7 29.84 1011 9 14 0.01 0.25
9:51 am 09:51 Cloudy 55 13 54 12 94 94 SW 13 20 29.88 1012 10 16 0.00 0.00
9:53 am 09:53 Cloudy 56 13.3 54 12.2 93 93 SW 12 19 29.85 1011 10 16 0.00 0.00
10:24 am 10:24 Cloudy 56 13.3 54 12.2 93 93 WSW 7 11 29.91 1013 10 16 0.01 0.25
10:53 am 10:53 Cloudy 56 13.3 52 11.1 87 87 SW 10 17 29.88 1012 10 16 0.01 0.25
11:53 am 11:53 Cloudy 57 13.9 52 11.1 83 83 S 9 15 29.84 1011 10 16 0.00 0.00
12:53 pm 12:53 Mostly Cloudy 58 14.4 52 11.1 81 81 SSW 10 17 29.82 1010 10 16 0.00 0.00
1:53 pm 13:53 Cloudy 59 15 49 9.4 69 69 WSW 16 26 29.83 1010 10 16 0.00 0.00
2:53 pm 14:53 Partly Cloudy 59 15 48 8.9 67 67 SW 12 19 29.85 1011 10 16 0.00 0.00
3:53 pm 15:53 Cloudy 58 14.4 45 7.2 62 62 W 18 30 29.88 1012 10 16 0.00 0.00
4:53 pm 16:53 Sunny 53 11.7 43 6.1 69 69 W 18 30 29.94 1014 10 16 0.00 0.00
5:53 pm 17:53 Clear 50 10 39 3.9 66 66 W 23 37 29.97 1015 10 16 0.00 0.00
6:53 pm 18:53 Clear 47 8.3 37 2.8 69 69 W 15 24 30.01 1016 10 16 0.00 0.00
7:53 pm 19:53 Clear 42 5.6 35 1.7 76 76 NW 6 9 30.05 1018 10 16 0.00 0.00
8:53 pm 20:53 Mostly Cloudy 41 5 31 -0.6 67 67 WNW 8 13 30.08 1019 10 16 0.00 0.00
9:53 pm 21:53 Cloudy 40 4.4 31 -0.6 70 70 W 13 20 30.10 1019 10 16 0.00 0.00
10:53 pm 22:53 Cloudy 39 3.9 29 -1.7 67 67 W 15 24 30.13 1020 10 16 0.00 0.00
11:53 pm 23:53 Cloudy 37 2.8 28 -2.2 70 70 W 13 20 30.16 1021 10 16 0.00 0.00

Powered by AerisWeather